Regional Weather Roundup
Issued by NWS Charleston, SC

Current Version | Previous Version | Text Only | Print | Product List | Glossary Off
Versions: 1 2 3 4 5 6 7 8 9 10 11 12 13 14 15 16 17 18 19 20 21 22 23 24 25 26 27 28 29 30 31 32 33 34 35 36 37 38 39 40 41 42 43 44 45 46 47 48 49 50

000
ASUS42 KCHS 180112
RWRCHS

REGIONAL WEATHER ROUNDUP
NATIONAL WEATHER SERVICE CHARLESTON SC
900 PM EDT TUE OCT 17 2017

NOTE: "FAIR" INDICATES FEW OR NO CLOUDS BELOW 12,000 FEET WITH NO
SIGNIFICANT WEATHER AND/OR OBSTRUCTIONS TO VISIBILITY.

NOT ALL STATIONS ARE QUALITY CONTROLLED. USE DATA WITH CAUTION...
ESPECIALLY DEWPOINT OBSERVATIONS.

SCZ027-030-031-034>040-042>050-180200-
...SOUTHEAST SOUTH CAROLINA...

CITY           SKY/WX    TMP DP  RH WIND       PRES   REMARKS
N CHARLESTON   CLEAR     55  48  77 NE5       30.26R
WATERFRONT PRK   N/A     63  48  58 NE9       30.11R
JOHNS ISLAND   FAIR      61  45  55 N7        30.26R
PINOPOLIS        N/A     64  50  59 NE10      30.18R
MONCKS CORNER  FAIR      52  48  87 CALM      30.27R
SUMMERVILLE    FAIR      52  48  87 CALM      30.28R
BEAUFORT MCAS  CLEAR     60  48  64 MISG      30.25S
BEAUFORT ARPT  FAIR      63  46  55 NE16      30.25R
HILTON HEAD IS CLEAR     64  45  48 NE14      30.25S
WALTERBORO     CLEAR     52  45  76 N3        30.27S
ALLENDALE      NOT AVBL

...SOUTHERN MIDLANDS AND PEE DEE...

CITY           SKY/WX    TMP DP  RH WIND       PRES   REMARKS
GEORGETOWN     FAIR      52  50  93 CALM      30.28R
KINGSTREE      FAIR      48  46  93 CALM      30.29R
ORANGEBURG     CLEAR     52  43  71 NE3       30.28R
BARNWELL         N/A     54  46  76 CALM      30.28R
AIKEN          FAIR      50  43  76 CALM      30.31R
MANNING        FOG       50  46  87 MISG      30.28R VSB<1/4
COLUMBIA       CLEAR     53  48  83 CALM      30.28R
SUMTER         CLEAR     51  42  73 NE3       30.27R
FLORENCE       CLEAR     53  42  66 NE5       30.29R
MYRTLE BEACH   CLEAR     56  47  71 N7        30.29R
N MYRTLE BEACH CLEAR     54  48  80 NE6       30.27S

$$

GAZ063-065-086>088-099>101-113>116-118-119-134>141-150-180200-
...SOUTHEAST GEORGIA...

CITY           SKY/WX    TMP DP  RH WIND       PRES   REMARKS
SAVANNAH ARPT  CLEAR     59  46  62 NE7       30.25R
HUNTER AAF     CLEAR     61  44  53 NE6       30.22R
FORT STEWART   CLEAR     54  46  75 N3        30.23R
STATESBORO     CLEAR     52  44  73 CALM      30.26R
SYLVANIA       CLEAR     56  45  67 E3        30.27R
CLAXTON        FAIR      52  50  93 CALM      30.26R

...CSRA...CENTRAL AND FAR SOUTHEAST GEORGIA...

CITY           SKY/WX    TMP DP  RH WIND       PRES   REMARKS
THOMSON        CLEAR     51  46  83 CALM      30.32R
AUGUSTA-BUSH   CLEAR     51  45  79 CALM      30.27R
AUGUSTA-DANIEL CLEAR     62  40  44 NE7       30.27S
SWAINSBORO     FAIR      55  46  71 MISG      30.26S
VIDALIA        CLEAR     57  46  67 NE3       30.25R
EASTMAN        FAIR      58  33  38 NE5       30.27R
HAZLEHURST     FAIR      60  32  34 E3        30.23R
ALMA           CLEAR     56  45  66 CALM      30.23R
WAYCROSS       CLEAR     59  46  62 E3        30.23R
JESUP          NOT AVBL
BAXLEY         FAIR      55  41  58 E6        30.24R
BRUNSWICK      CLEAR     64  46  52 NE9       30.22S
SAINT SIMONS   PTCLDY    67  56  67 NE18G25   30.20S

$$

SCZ027-028-034-036>038-045-046-048>050-GAZ119-141-180200-
...LAKE AND SUPPLEMENTAL COASTAL OBSERVATIONS...

STATION/POSITION TIME  TEMP    WIND        PRES    WAVE   SWELL
                       AIR SEA DIR/SP/G            HT/PER HT/PER/DIR
                 (UTC) (F)     (DEG/KT/KT) (MB)    (FT/S) (FT/S/D)
WINYAH BAY       NOT AVBL
LAKE MURRAY      0020   60      CALM  /  1 1024.7
ACE BASIN NERRS  2345   59        CALM     1024.0
FORT PULASKI     0036   66 76   50/ 14/ 19 1024.2R
SAPELO ISLAND    0000   67      40/ 12     1023.0

$$

ANZ835-935-AMZ111-154-330-350-352-354-370-450-454-472-180200-
...C-MAN AND BUOY OBSERVATIONS...

STATION/POSITION TIME  TEMP    WIND        PRES    WAVE   SWELL
                       AIR SEA DIR/SP/G            HT/PER HT/PER/DIR
                 (UTC) (F)     (DEG/KT/KT) (MB)    (FT/S) (FT/S/D)
BUOY 41004       0050   69 80   40/ 21/ 29 1022.6R  10/11   7/100/11
BUOY 41008       0050   69 78   50/ 23/ 27 1021.9R   7/ 7   3/110/11
FOLLY BEACH CMAN 0000   66      30/ 18/ 22 1024.5R
CAPERS NEARSHORE 0008   64 76   40/ 19/ 27 1023.2R
FRIPP NEARSHORE  0008   67      40/ 17/ 23   N/A


STATION/POSITION TIME  TEMP    WIND        PRES    WAVE   SWELL
                       AIR SEA DIR/SP/G            HT/PER HT/PER/DIR
                 (UTC) (F)     (DEG/KT/KT) (MB)    (FT/S) (FT/S/D)
5E ST. MARYS GA  0030      79                N/A     8/ 7   2/110/11
FRYING PAN BUOY  0050   66 77   40/ 19/ 27 1023.7R   7/10   3/110/10
BUOY 41025       0050   65 81   20/ 19/ 23 1023.8R   7/11   3/120/11
CAPE LOOKOUT NC  0000   60      10/ 13/ 15 1024.6R
BUOY 41002       0050   74 79   30/ 25/ 29 1018.5R  12/10
BUOY 41010       NOT AVBL
ST AUGUSTINE FL  0100   74 80   20/ 26/ 28 1020.1R


$$



USA.gov is the U.S. government's official web portal to all federal, state and local government web resources and services.